Simultaneous Nadir Overpasses (SNOs) Predictions

Prediction of SNOs between NOAA-19 and TERRA Satellite Orbit:

Table of predicted SNOs for the next 14.0 days since TLE Epoch: 5/25/2013
Index Date (NOAA-19) Time (NOAA-19) Lat,Lon (NOAA-19) SZA (NOAA-19 ) Date (TERRA) Time (TERRA) Lat,Lon (TERRA) SZA (TERRA ) Distance(km) Time Diff (sec)
1 05/25/2013 09:56:43 69.43, 30.79 48.31 05/25/2013 09:56:51 69.42, 30.78 48.30 1.48 8
2 05/25/2013 10:47:35 -69.23,-161.64 131.90 05/25/2013 10:46:22 -69.25,-161.81 131.88 7.20 73
3 05/27/2013 14:41:03 69.42, -40.26 47.93 05/27/2013 14:41:10 69.44, -40.28 47.94 1.77 7
4 05/27/2013 15:31:55 -69.20, 127.33 132.30 05/27/2013 15:30:42 -69.21, 127.06 132.29 10.59 73
5 05/29/2013 19:25:23 69.42,-111.33 47.58 05/29/2013 19:25:29 69.44,-111.35 47.60 2.58 6
6 05/29/2013 20:16:14 -69.12, 56.37 132.72 05/29/2013 20:15:02 -69.17, 55.92 132.69 18.33 72
7 06/01/2013 00:09:43 69.42, 177.60 47.27 06/01/2013 00:09:48 69.43, 177.55 47.27 1.97 5
8 06/01/2013 01:00:34 -69.10, -14.68 133.06 06/01/2013 00:59:21 -69.16, -15.17 133.01 20.60 73
9 06/03/2013 04:03:17 -70.52, -62.39 131.91 06/03/2013 04:04:23 -70.44, -59.75 131.98 98.73 66
10 06/03/2013 04:54:03 69.43, 106.52 46.99 06/03/2013 04:54:06 69.46, 106.51 47.02 2.99 3
11 06/03/2013 05:44:53 -69.03, -85.65 133.41 06/03/2013 05:43:41 -69.08, -86.35 133.37 28.53 72
12 06/05/2013 08:47:36 -70.45,-133.36 132.23 06/05/2013 08:48:43 -70.35,-130.96 132.33 90.12 67
13 06/05/2013 09:38:23 69.44, 35.43
